WetterOnline ( https://www.wetteronline.de )

Wetter aktuell Etgert

Aktuelles Wetter: Deuselbach (483m)

6-stündlich | Neueste Meldungen
Ortszeit Temperatur Wetter
So, 03.03. 13:00 12.3° C leicht bewölkt
So, 03.03. 7:00 7.1° C bedeckt
So, 03.03. 1:00 8.0° C leicht bewölkt
Sa, 02.03. 19:00 9.3° C leichter Regen
Sa, 02.03. 13:00 10.0° C wolkig
Sa, 02.03. 7:00 5.6° C bedeckt
Sa, 02.03. 1:00 6.3° C bewölkt
Fr, 01.03. 19:00 6.3° C wolkig
Ortszeit Temperatur Wetter
So, 03.03. 13:30 12.1° C wolkig
So, 03.03. 13:20 12.1° C wolkig
So, 03.03. 13:10 12.5° C wolkig
So, 03.03. 13:00 12.3° C leicht bewölkt
So, 03.03. 12:50 12.3° C leicht bewölkt
So, 03.03. 12:40 12.7° C leicht bewölkt
So, 03.03. 12:30 11.9° C bedeckt
So, 03.03. 12:00 11.6° C wolkig
So, 03.03. 11:30 10.8° C leicht bewölkt
So, 03.03. 11:00 10.0° C leicht bewölkt
So, 03.03. 10:30 9.4° C wolkig
Ortszeit Relative Feuchte Sichtweite
So, 03.03. 13:00 61% 35 km
So, 03.03. 7:00 82% 17 km
So, 03.03. 1:00 76% 35 km
Sa, 02.03. 19:00 68% 60 km
Sa, 02.03. 13:00 62% >70 km
Sa, 02.03. 7:00 70% >70 km
Sa, 02.03. 1:00 69% 65 km
Fr, 01.03. 19:00 68% >70 km
Ortszeit Relative Feuchte Sichtweite
So, 03.03. 13:30 58% 45 km
So, 03.03. 13:20 58% -
So, 03.03. 13:10 57% -
So, 03.03. 13:00 61% 35 km
So, 03.03. 12:50 61% -
So, 03.03. 12:40 62% -
So, 03.03. 12:30 63% 35 km
So, 03.03. 12:00 66% 25 km
So, 03.03. 11:30 67% 25 km
So, 03.03. 11:00 71% 18 km
So, 03.03. 10:30 73% 18 km
Ortszeit Niederschlagsmenge Niederschlagsart
So, 03.03. 13:00 0.0 l/m2 in 6 Std. -
So, 03.03. 7:00 0.1 l/m2 in 12 Std. -
So, 03.03. 1:00 0.1 l/m2 in 6 Std. Regen
Sa, 02.03. 19:00 0.1 l/m2 in 12 Std. Regen
Sa, 02.03. 13:00 0.1 l/m2 in 6 Std. Regen
Sa, 02.03. 7:00 0.1 l/m2 in 12 Std. Regen
Sa, 02.03. 1:00 0.0 l/m2 in 6 Std. -
Fr, 01.03. 19:00 0.1 l/m2 in 12 Std. -
Ortszeit Niederschlagsmenge Niederschlagsart
So, 03.03. 13:30 0.0 l/m2 in 30 Min -
So, 03.03. 13:20 keine Meldung -
So, 03.03. 13:10 keine Meldung -
So, 03.03. 13:00 0.0 l/m2 in 1 Std. -
So, 03.03. 12:50 keine Meldung -
So, 03.03. 12:40 keine Meldung -
So, 03.03. 12:30 0.0 l/m2 in 30 Min -
So, 03.03. 12:00 0.0 l/m2 in 1 Std. -
So, 03.03. 11:30 0.0 l/m2 in 30 Min -
So, 03.03. 11:00 0.0 l/m2 in 1 Std. -
So, 03.03. 10:30 0.0 l/m2 in 30 Min -
Ortszeit Stärke Spitze Richtung
km/h Bft. km/h Grad Sektor
So, 03.03. 13:00 18 3 32 50° NO
So, 03.03. 7:00 6 1 35 80° O
So, 03.03. 1:00 22 4 43 130° SO
Sa, 02.03. 19:00 9 2 37 150° SO
Sa, 02.03. 13:00 17 3 43 180° S
Sa, 02.03. 7:00 11 2 37 180° S
Sa, 02.03. 1:00 20 4 50 170° S
Fr, 01.03. 19:00 28 4 48 170° S
Ortszeit Stärke Spitze Richtung
km/h Bft. km/h Grad Sektor
So, 03.03. 13:30 17 3 28 90° O
So, 03.03. 13:20 17 3 - 90° O
So, 03.03. 13:10 15 3 - 70° O
So, 03.03. 13:00 18 3 32 50° NO
So, 03.03. 12:50 18 3 - 50° NO
So, 03.03. 12:40 18 3 - 50° NO
So, 03.03. 12:30 14 3 29 80° O
So, 03.03. 12:00 17 3 28 70° O
So, 03.03. 11:30 14 3 22 70° O
So, 03.03. 11:00 18 3 32 90° O
So, 03.03. 10:30 20 4 28 100° O
Ortszeit Untergrenze Bedeckung Gattung
total tief tief mittel hoch
So, 03.03. 13:00 3300 m 4/8 3/8 - - -
So, 03.03. 7:00 2400 m 8/8 8/8 - - -
So, 03.03. 1:00 2700 m 4/8 4/8 - - -
Sa, 02.03. 19:00 1320 m 8/8 8/8 - - -
Sa, 02.03. 13:00 4200 m 8/8 7/8 - - -
Sa, 02.03. 7:00 630 m 8/8 8/8 - - -
Sa, 02.03. 1:00 1350 m 7/8 7/8 - - -
Fr, 01.03. 19:00 1500 m 8/8 3/8 - - -
Ortszeit Bedeckungsgrad in Achtel und Wolkenuntergrenze
So, 03.03. 13:30 1(5100m) 7(9000m)
So, 03.03. 13:20 1(5100m) 7(9000m)
So, 03.03. 13:10 6
So, 03.03. 13:00 1(3300m) 3(3900m)
So, 03.03. 12:50 1(3300m) 3(3900m) 4(9000m)
So, 03.03. 12:40 4
So, 03.03. 12:30 8(3300m) 8(5100m)
So, 03.03. 12:00 7(3300m)
So, 03.03. 11:30 3(3600m)
So, 03.03. 11:00 2(3000m) 4(7200m) 5(9000m)
So, 03.03. 10:30 1(3600m) 7(7200m) 7(7800m)
Ortszeit Luftdruck NN (hPa) Tendenz (hPa in 3 Std.)
So, 03.03. 13:00 998 - 0,3
So, 03.03. 7:00 999 - 0,6
So, 03.03. 1:00 1000 - 0,6
Sa, 02.03. 19:00 1001 - 0,2
Sa, 02.03. 13:00 1002 - 1,0
Sa, 02.03. 7:00 1003 + 0,5
Sa, 02.03. 1:00 1004 - 0,7
Fr, 01.03. 19:00 1004 - 1,0
Ortszeit Luftdruck NN (hPa) Tendenz (hPa in 3 Std.)
So, 03.03. 13:30 998 - 0,7
So, 03.03. 13:20 998 keine Meldung
So, 03.03. 13:10 998 keine Meldung
So, 03.03. 13:00 998 - 0,3
So, 03.03. 12:50 998 keine Meldung
So, 03.03. 12:40 998 keine Meldung
So, 03.03. 12:30 998 - 0,5
So, 03.03. 12:00 998 - 0,7
So, 03.03. 11:30 999 - 0,8
So, 03.03. 11:00 999 - 0,8
So, 03.03. 10:30 999 0,0
Ortszeit Schneehöhe (cm)
So, 03.03. 13:00 0
So, 03.03. 7:00 0
So, 03.03. 1:00 0
Sa, 02.03. 19:00 0
Sa, 02.03. 13:00 0
Sa, 02.03. 7:00 0
Sa, 02.03. 1:00 0
Fr, 01.03. 19:00 0
Ortszeit Schneehöhe (cm)
So, 03.03. 13:30 0
So, 03.03. 13:20 0
So, 03.03. 13:10 -
So, 03.03. 13:00 0
So, 03.03. 12:50 0
So, 03.03. 12:40 -
So, 03.03. 12:30 0
So, 03.03. 12:00 0
So, 03.03. 11:30 0
So, 03.03. 11:00 0
So, 03.03. 10:30 0
Link zu dieser Seite / Seite empfehlen

Das Wetter in ...